EJA81 EGPH-EGLL

Flight info

Callsign EJA81
Flight time 1h 2m
Altitude 33000
Route GOSAM P600 FENIK L612 NAVSO DCT AKOMU DCT VAMEB DCT NUGRA
Aircraft CL60/M-SADE3FGHIJ3J4J7P2RWXY/HB1D1

Departure

Time 2026-04-25 13:47
Airport Edinburgh Airport (EGPH)

Arrival

Time 2026-04-25 14:50
Airport London Heathrow Airport (EGLL)
Time Latitude Longitude Altitude Speed Heading
2026-04-25 13:06 55.94765 -3.34554 114 ft 0 kts 149°
2026-04-25 13:38 55.94763 -3.34540 114 ft 3 kts 54°
2026-04-25 13:38 55.94792 -3.34571 114 ft 8 kts 319°
2026-04-25 13:39 55.94782 -3.34692 112 ft 13 kts 239°
2026-04-25 13:39 55.94730 -3.34848 111 ft 14 kts 240°
2026-04-25 13:39 55.94676 -3.35004 108 ft 16 kts 238°
2026-04-25 13:39 55.94700 -3.35122 108 ft 12 kts 326°
2026-04-25 13:40 55.94750 -3.35263 108 ft 15 kts 299°
2026-04-25 13:40 55.94808 -3.35450 108 ft 19 kts 300°
2026-04-25 13:40 55.94879 -3.35685 105 ft 23 kts 299°
2026-04-25 13:40 55.94948 -3.35862 105 ft 19 kts 339°
2026-04-25 13:41 55.95041 -3.35842 104 ft 11 kts 332°
2026-04-25 13:41 55.95091 -3.35988 102 ft 16 kts 298°
2026-04-25 13:41 55.95130 -3.36196 102 ft 14 kts 290°
2026-04-25 13:41 55.95110 -3.36348 102 ft 13 kts 239°
2026-04-25 13:42 55.95054 -3.36517 101 ft 18 kts 239°
2026-04-25 13:42 55.94980 -3.36733 100 ft 22 kts 239°
2026-04-25 13:42 55.94896 -3.36981 100 ft 23 kts 239°
2026-04-25 13:42 55.94809 -3.37240 101 ft 19 kts 239°
2026-04-25 13:43 55.94740 -3.37442 101 ft 17 kts 239°
2026-04-25 13:43 55.94669 -3.37650 102 ft 21 kts 239°
2026-04-25 13:43 55.94598 -3.37862 104 ft 16 kts 239°
2026-04-25 13:43 55.94534 -3.38049 107 ft 19 kts 239°
2026-04-25 13:44 55.94465 -3.38256 109 ft 18 kts 239°
2026-04-25 13:44 55.94415 -3.38402 110 ft 15 kts 239°
2026-04-25 13:44 55.94352 -3.38585 111 ft 19 kts 239°
2026-04-25 13:44 55.94284 -3.38784 114 ft 11 kts 242°
2026-04-25 13:45 55.94312 -3.38893 114 ft 1 kts 332°
2026-04-25 13:46 55.94313 -3.38894 114 ft 1 kts 332°
2026-04-25 13:46 55.94380 -3.38959 113 ft 15 kts 343°
2026-04-25 13:47 55.94441 -3.38896 112 ft 0 kts 60°
2026-04-25 13:47 55.94508 -3.38695 109 ft 64 kts 59°
2026-04-25 13:47 55.94935 -3.37452 159 ft 157 kts 60°
2026-04-25 13:47 55.95516 -3.35594 797 ft 187 kts 61°
2026-04-25 13:48 55.96220 -3.33627 1695 ft 194 kts 51°
2026-04-25 13:48 55.97209 -3.31951 2401 ft 207 kts 41°
2026-04-25 13:48 55.98291 -3.30290 2978 ft 205 kts 41°
2026-04-25 13:48 55.99374 -3.28628 3519 ft 208 kts 39°
2026-04-25 13:49 56.00661 -3.27524 4042 ft 210 kts
2026-04-25 13:49 56.02060 -3.28076 4588 ft 209 kts 330°
2026-04-25 13:49 56.03088 -3.29803 5144 ft 208 kts 300°
2026-04-25 13:49 56.03445 -3.32287 5703 ft 211 kts 268°
2026-04-25 13:50 56.03160 -3.34849 5967 ft 213 kts 257°
2026-04-25 13:50 56.02751 -3.37537 5975 ft 242 kts 257°
2026-04-25 13:50 56.02296 -3.40569 5964 ft 258 kts 257°
2026-04-25 13:50 56.01829 -3.43669 5970 ft 261 kts 257°
2026-04-25 13:51 56.01370 -3.46830 5968 ft 262 kts 258°
2026-04-25 13:51 56.00925 -3.49953 6021 ft 261 kts 258°
2026-04-25 13:51 56.00474 -3.53109 6275 ft 263 kts 258°
2026-04-25 13:51 56.00016 -3.56312 6491 ft 265 kts 258°
2026-04-25 13:52 55.99559 -3.59503 6752 ft 266 kts 258°
2026-04-25 13:52 55.99101 -3.62703 7007 ft 268 kts 258°
2026-04-25 13:52 55.98641 -3.65909 7241 ft 269 kts 257°
2026-04-25 13:52 55.98180 -3.69113 7490 ft 270 kts 257°
2026-04-25 13:53 55.97717 -3.72330 7916 ft 270 kts 258°
2026-04-25 13:53 55.97242 -3.75629 8396 ft 274 kts 257°
2026-04-25 13:53 55.96769 -3.78902 8876 ft 276 kts 258°
2026-04-25 13:53 55.96292 -3.82200 9396 ft 279 kts 258°
2026-04-25 13:54 55.95811 -3.85515 10099 ft 277 kts 258°
2026-04-25 13:54 55.95316 -3.88926 10943 ft 292 kts 257°
2026-04-25 13:54 55.94814 -3.92379 12422 ft 295 kts 257°
2026-04-25 13:54 55.94313 -3.95803 13921 ft 294 kts 257°
2026-04-25 13:55 55.93701 -3.99263 15219 ft 299 kts 248°
2026-04-25 13:55 55.92682 -4.02456 16444 ft 305 kts 234°
2026-04-25 13:55 55.91215 -4.05158 17609 ft 310 kts 219°
2026-04-25 13:55 55.89472 -4.07335 18719 ft 314 kts 214°
2026-04-25 13:56 55.87673 -4.09497 19786 ft 318 kts 214°
2026-04-25 13:56 55.85831 -4.11715 20726 ft 325 kts 214°
2026-04-25 13:56 55.83942 -4.13987 21625 ft 333 kts 214°
2026-04-25 13:56 55.82039 -4.16274 22545 ft 337 kts 214°
2026-04-25 13:57 55.80096 -4.18605 23445 ft 342 kts 213°
2026-04-25 13:57 55.79429 -4.19405 23748 ft 344 kts 213°
2026-04-25 13:57 55.76157 -4.23436 25181 ft 352 kts 214°
2026-04-25 13:57 55.74044 -4.25638 26059 ft 354 kts 202°
2026-04-25 13:58 55.71677 -4.26690 26840 ft 357 kts 185°
2026-04-25 13:58 55.69195 -4.26366 27586 ft 360 kts 166°
2026-04-25 13:58 55.66880 -4.24663 28269 ft 365 kts 152°
2026-04-25 13:58 55.64669 -4.22471 28890 ft 371 kts 152°
2026-04-25 13:59 55.62430 -4.20263 29540 ft 375 kts 152°
2026-04-25 13:59 55.60148 -4.18020 30195 ft 378 kts 152°
2026-04-25 13:59 55.57864 -4.15777 30776 ft 382 kts 152°
2026-04-25 13:59 55.55524 -4.13485 31362 ft 385 kts 152°
2026-04-25 14:00 55.53188 -4.11200 31902 ft 389 kts 152°
2026-04-25 14:00 55.50814 -4.08883 32421 ft 392 kts 152°
2026-04-25 14:00 55.48426 -4.06555 32897 ft 396 kts 152°
2026-04-25 14:00 55.46011 -4.04206 33167 ft 403 kts 152°
2026-04-25 14:01 55.43556 -4.01820 33198 ft 410 kts 152°
2026-04-25 14:01 55.41004 -3.99345 33186 ft 422 kts 152°
2026-04-25 14:01 55.38397 -3.96821 33183 ft 434 kts 152°
2026-04-25 14:02 55.33022 -3.91629 33181 ft 449 kts 152°
2026-04-25 14:02 55.27540 -3.86350 33181 ft 452 kts 152°
2026-04-25 14:03 55.22012 -3.81074 33184 ft 452 kts 153°
2026-04-25 14:03 55.16401 -3.76215 33184 ft 453 kts 154°
2026-04-25 14:04 55.10750 -3.71362 33187 ft 454 kts 154°
2026-04-25 14:04 55.05090 -3.66516 33183 ft 454 kts 154°
2026-04-25 14:05 54.99443 -3.61696 33179 ft 454 kts 154°
2026-04-25 14:05 54.93761 -3.56862 33178 ft 455 kts 154°
2026-04-25 14:06 54.88088 -3.52049 33175 ft 456 kts 154°
2026-04-25 14:06 54.82433 -3.47267 33178 ft 457 kts 154°
2026-04-25 14:07 54.76718 -3.42450 33179 ft 457 kts 154°
2026-04-25 14:07 54.71020 -3.37669 33180 ft 458 kts 155°
2026-04-25 14:08 54.65284 -3.32870 33178 ft 458 kts 155°
2026-04-25 14:08 54.59560 -3.28094 33181 ft 458 kts 155°
2026-04-25 14:09 54.53819 -3.23317 33178 ft 458 kts 155°
2026-04-25 14:09 54.48083 -3.18559 33178 ft 458 kts 155°
2026-04-25 14:10 54.43304 -3.14606 33179 ft 459 kts 155°
2026-04-25 14:10 54.36603 -3.09080 33181 ft 459 kts 155°
2026-04-25 14:11 54.30871 -3.04368 33185 ft 460 kts 155°
2026-04-25 14:11 54.25084 -2.99626 33191 ft 461 kts 155°
2026-04-25 14:12 54.19279 -2.94884 33189 ft 461 kts 155°
2026-04-25 14:12 54.13441 -2.90415 33190 ft 461 kts 158°
2026-04-25 14:13 54.07548 -2.86129 33192 ft 461 kts 158°
2026-04-25 14:13 54.01688 -2.81877 33195 ft 461 kts 158°
2026-04-25 14:14 53.95635 -2.78309 33194 ft 461 kts 163°
2026-04-25 14:14 53.89531 -2.75103 33194 ft 461 kts 163°
2026-04-25 14:15 53.83447 -2.71909 33193 ft 461 kts 163°
2026-04-25 14:15 53.77327 -2.68701 33188 ft 461 kts 163°
2026-04-25 14:16 53.71198 -2.65495 33182 ft 462 kts 163°
2026-04-25 14:16 53.65089 -2.62307 33181 ft 462 kts 163°
2026-04-25 14:17 53.58954 -2.59113 33185 ft 462 kts 163°
2026-04-25 14:17 53.52848 -2.55942 33183 ft 462 kts 164°
2026-04-25 14:18 53.46719 -2.52768 33187 ft 463 kts 163°
2026-04-25 14:18 53.40553 -2.49583 33194 ft 463 kts 164°
2026-04-25 14:19 53.34399 -2.46414 33188 ft 463 kts 163°
2026-04-25 14:19 53.28247 -2.43256 33189 ft 464 kts 163°
2026-04-25 14:20 53.22105 -2.40111 33187 ft 464 kts 163°
2026-04-25 14:20 53.15933 -2.36961 33186 ft 464 kts 164°
2026-04-25 14:21 53.09798 -2.33838 33181 ft 464 kts 165°
2026-04-25 14:21 53.03650 -2.30475 33182 ft 466 kts 158°
2026-04-25 14:22 52.98019 -2.25191 33180 ft 468 kts 149°
2026-04-25 14:22 52.92544 -2.19441 33181 ft 468 kts 149°
2026-04-25 14:23 52.87037 -2.13680 33182 ft 468 kts 149°
2026-04-25 14:23 52.81539 -2.07947 33182 ft 468 kts 149°
2026-04-25 14:23 52.78770 -2.05067 32863 ft 474 kts 149°
2026-04-25 14:24 52.76026 -2.02217 32305 ft 470 kts 149°
2026-04-25 14:24 52.73267 -1.99354 31727 ft 463 kts 149°
2026-04-25 14:24 52.70570 -1.96561 31147 ft 456 kts 149°
2026-04-25 14:24 52.67910 -1.93809 30557 ft 451 kts 149°
2026-04-25 14:25 52.65273 -1.91088 29970 ft 447 kts 149°
2026-04-25 14:25 52.62667 -1.88401 29381 ft 444 kts 149°
2026-04-25 14:25 52.60046 -1.85703 28796 ft 441 kts 149°
2026-04-25 14:25 52.59165 -1.84798 28596 ft 440 kts 149°
2026-04-25 14:26 52.54882 -1.80400 27630 ft 434 kts 149°
2026-04-25 14:26 52.52359 -1.77814 27064 ft 431 kts 149°
2026-04-25 14:26 52.49823 -1.75218 26491 ft 428 kts 149°
2026-04-25 14:26 52.47326 -1.72666 25930 ft 424 kts 149°
2026-04-25 14:27 52.44856 -1.70145 25375 ft 421 kts 149°
2026-04-25 14:27 52.42375 -1.67616 24812 ft 417 kts 149°
2026-04-25 14:27 52.39928 -1.65125 24268 ft 414 kts 149°
2026-04-25 14:27 52.37508 -1.62664 23724 ft 410 kts 149°
2026-04-25 14:28 52.35110 -1.60231 23189 ft 407 kts 149°
2026-04-25 14:28 52.32729 -1.57816 22652 ft 405 kts 149°
2026-04-25 14:28 52.30356 -1.55413 22114 ft 402 kts 149°
2026-04-25 14:28 52.27986 -1.53016 21578 ft 399 kts 149°
2026-04-25 14:29 52.25649 -1.50654 21049 ft 396 kts 149°
2026-04-25 14:29 52.23311 -1.48296 20528 ft 393 kts 149°
2026-04-25 14:29 52.21057 -1.45836 20003 ft 391 kts 142°
2026-04-25 14:29 52.19009 -1.42993 19566 ft 387 kts 140°
2026-04-25 14:30 52.16981 -1.40144 19239 ft 385 kts 140°
2026-04-25 14:30 52.12951 -1.34509 18466 ft 381 kts 141°
2026-04-25 14:30 52.10954 -1.31724 18086 ft 380 kts 140°
2026-04-25 14:31 52.08947 -1.28929 17689 ft 377 kts 140°
2026-04-25 14:31 52.06987 -1.26203 17316 ft 375 kts 140°
2026-04-25 14:31 52.05014 -1.23463 16927 ft 373 kts 140°
2026-04-25 14:31 52.03051 -1.20739 16574 ft 371 kts 140°
2026-04-25 14:32 52.01083 -1.18013 16219 ft 370 kts 140°
2026-04-25 14:32 51.99159 -1.15352 15834 ft 366 kts 140°
2026-04-25 14:32 51.97224 -1.12679 15417 ft 364 kts 140°
2026-04-25 14:32 51.95315 -1.10044 15062 ft 362 kts 140°
2026-04-25 14:33 51.93381 -1.07377 14654 ft 361 kts 140°
2026-04-25 14:33 51.91503 -1.04791 14137 ft 359 kts 140°
2026-04-25 14:33 51.89594 -1.02166 13561 ft 354 kts 140°
2026-04-25 14:33 51.87759 -0.99643 13127 ft 351 kts 140°
2026-04-25 14:34 51.85915 -0.97014 12695 ft 347 kts 134°
2026-04-25 14:34 51.84542 -0.93844 12222 ft 347 kts 117°
2026-04-25 14:34 51.83503 -0.90425 11802 ft 342 kts 116°
2026-04-25 14:34 51.82449 -0.86967 11314 ft 341 kts 116°
2026-04-25 14:35 51.81398 -0.83535 10867 ft 339 kts 116°
2026-04-25 14:35 51.80363 -0.80155 10481 ft 337 kts 116°
2026-04-25 14:35 51.79324 -0.76769 9960 ft 336 kts 115°
2026-04-25 14:35 51.78299 -0.73433 9524 ft 332 kts 115°
2026-04-25 14:36 51.77274 -0.70102 9162 ft 330 kts 115°
2026-04-25 14:36 51.76265 -0.66828 8725 ft 326 kts 115°
2026-04-25 14:36 51.75277 -0.63624 8252 ft 317 kts 115°
2026-04-25 14:36 51.74314 -0.60508 7883 ft 303 kts 115°
2026-04-25 14:37 51.73383 -0.57497 7514 ft 295 kts 115°
2026-04-25 14:37 51.72494 -0.54627 7242 ft 282 kts 115°
2026-04-25 14:37 51.71479 -0.51901 7199 ft 285 kts 122°
2026-04-25 14:37 51.70428 -0.49240 7187 ft 283 kts 121°
2026-04-25 14:38 51.69391 -0.46551 7187 ft 283 kts 121°
2026-04-25 14:38 51.68326 -0.43876 7186 ft 283 kts 126°
2026-04-25 14:38 51.66817 -0.41903 7190 ft 284 kts 156°
2026-04-25 14:38 51.64897 -0.41385 7180 ft 276 kts 187°
2026-04-25 14:39 51.63201 -0.42322 7180 ft 252 kts 209°
2026-04-25 14:39 51.61672 -0.43549 7210 ft 240 kts 198°
2026-04-25 14:39 51.60029 -0.43616 7191 ft 241 kts 162°
2026-04-25 14:39 51.58653 -0.42150 7187 ft 238 kts 126°
2026-04-25 14:40 51.58073 -0.39759 7189 ft 235 kts 92°
2026-04-25 14:40 51.58070 -0.37111 7186 ft 236 kts 86°
2026-04-25 14:40 51.58138 -0.34473 7147 ft 238 kts 86°
2026-04-25 14:40 51.58215 -0.31774 6758 ft 243 kts 86°
2026-04-25 14:41 51.58292 -0.29109 6525 ft 237 kts 86°
2026-04-25 14:41 51.58364 -0.26470 6310 ft 231 kts 86°
2026-04-25 14:41 51.58432 -0.23929 6128 ft 229 kts 86°
2026-04-25 14:41 51.58501 -0.21357 5978 ft 229 kts 86°
2026-04-25 14:42 51.58569 -0.18800 5771 ft 232 kts 86°
2026-04-25 14:42 51.58593 -0.17910 5701 ft 232 kts 86°
2026-04-25 14:42 51.58704 -0.13649 5429 ft 229 kts 86°
2026-04-25 14:42 51.58771 -0.11116 5262 ft 228 kts 86°
2026-04-25 14:43 51.58838 -0.08572 5075 ft 226 kts 86°
2026-04-25 14:43 51.58888 -0.06078 4978 ft 214 kts 91°
2026-04-25 14:43 51.58423 -0.03961 5017 ft 201 kts 131°
2026-04-25 14:43 51.57234 -0.02881 5010 ft 199 kts 174°
2026-04-25 14:44 51.55934 -0.03360 5009 ft 195 kts 218°
2026-04-25 14:44 51.54951 -0.04899 5018 ft 196 kts 231°
2026-04-25 14:44 51.54067 -0.06540 5010 ft 197 kts 231°
2026-04-25 14:44 51.53169 -0.08228 5014 ft 197 kts 231°
2026-04-25 14:45 51.52279 -0.09902 5013 ft 198 kts 231°
2026-04-25 14:45 51.51383 -0.11590 5013 ft 196 kts 231°
2026-04-25 14:45 51.50523 -0.13211 4793 ft 191 kts 232°
2026-04-25 14:45 51.49775 -0.14988 4310 ft 193 kts 241°
2026-04-25 14:46 51.49094 -0.16839 3842 ft 193 kts 241°
2026-04-25 14:46 51.48432 -0.18668 3313 ft 188 kts 242°
2026-04-25 14:46 51.47778 -0.20485 3032 ft 189 kts 242°
2026-04-25 14:46 51.47138 -0.22260 2921 ft 175 kts 242°
2026-04-25 14:47 51.46636 -0.23993 2452 ft 173 kts 259°
2026-04-25 14:47 51.46571 -0.24617 2369 ft 172 kts 266°
2026-04-25 14:47 51.46531 -0.27922 1941 ft 173 kts 271°
2026-04-25 14:47 51.46523 -0.29787 1795 ft 168 kts 271°
2026-04-25 14:48 51.46518 -0.31653 1506 ft 166 kts 271°
2026-04-25 14:48 51.46515 -0.33481 1310 ft 166 kts 271°
2026-04-25 14:48 51.46512 -0.35335 1079 ft 165 kts 271°
2026-04-25 14:48 51.46508 -0.37149 874 ft 155 kts 271°
2026-04-25 14:49 51.46505 -0.38774 700 ft 142 kts 271°
2026-04-25 14:49 51.46498 -0.40334 499 ft 136 kts 270°
2026-04-25 14:49 51.46498 -0.41829 310 ft 133 kts 271°
2026-04-25 14:49 51.46497 -0.43288 175 ft 132 kts 269°
2026-04-25 14:50 51.46488 -0.44271 91 ft 125 kts 269°
2026-04-25 14:50 51.46482 -0.45540 84 ft 39 kts 270°
2026-04-25 14:50 51.46460 -0.45710 84 ft 5 kts 207°
2026-04-25 14:50 51.46408 -0.45685 83 ft 11 kts 144°
2026-04-25 14:51 51.46326 -0.45601 81 ft 16 kts 149°
2026-04-25 14:51 51.46258 -0.45552 81 ft 10 kts 206°
2026-04-25 14:51 51.46230 -0.45607 81 ft 1 kts 238°
2026-04-25 14:51 51.46229 -0.45609 81 ft 0 kts 238°